Regional Weather Roundup
Issued by NWS

Home | Current Version | Previous Version | Graphics & Text | Print | Product List | Glossary On
Versions: 1 2 3 4 5 6 7 8 9 10 11 12 13 14 15 16 17 18 19 20 21 22 23 24 25 26 27 28 29 30 31 32 33 34 35 36 37 38 39 40 41 42 43 44 45 46 47 48 49 50
000
ASUS43 KMKX 251334
RWRWI

WISCONSIN REGIONAL WEATHER ROUNDUP
NATIONAL WEATHER SERVICE MILWAUKEE/SULLIVAN WI
900 AM CDT MON MAY 25 2015

NOTE: "FAIR" INDICATES FEW OR NO CLOUDS BELOW 12,000 FEET WITH NO
SIGNIFICANT WEATHER AND/OR OBSTRUCTIONS TO VISIBILITY.

WIZ001-002-006>008-014>016-023>028-251500-
NORTHWEST WISCONSIN

CITY           SKY/WX    TMP DP  RH WIND       PRES   REMARKS
SUPERIOR ARPT  RAIN      47  47  99 E15G21    29.73S
ASHLAND        LGT RAIN  52  52 100 NE12      29.73F FOG
HAYWARD        LGT RAIN  58  56  93 E5        29.69F
SIREN          DRIZZLE   57  56  97 E3        29.69F
CUMBERLAND     RAIN      55  54  94 E3        29.69S
RICE LAKE      CLOUDY    57  55  94 CALM      29.70S
CHETEK         CLOUDY    57  57 100 CALM      29.69F FOG
LADYSMITH      FOG       58  57  97 CALM      29.71S VSB 1
EAU CLAIRE     CLOUDY    59  58  96 S5        29.68S FOG
MENOMONIE      CLOUDY    58  58  98 SE5       29.69R FOG
NEW RICHMOND   LGT RAIN  57  57 100 CALM      29.67F
OSCEOLA        LGT RAIN  58  58 100 E5        29.69F
$$

WIZ003>005-009-010-017-018-251500-
NORTH CENTRAL WISCONSIN

CITY           SKY/WX    TMP DP  RH WIND       PRES   REMARKS
MANITOWISH WTR DRIZZLE   56  56 100 E5        29.72F
ARBOR VITAE    FOG       58  57  96 SE6       29.73S VSB 1
WOODRUFF       FOG       58  57  96 SE6       29.73S VSB 1
RHINELANDER    LGT RAIN  57  56  96 SE9       29.74F VSB 3/4
EAGLE RIVER    DRIZZLE   56  56 100 SE8       29.74F
LAND O LAKES   LGT RAIN  56  56  99 E8        29.76S
PHILLIPS       DRIZZLE   57  57 100 S5        29.70S
TOMAHAWK       FOG       58  57  97 SE3       29.73S VSB 3/4
MEDFORD        LGT RAIN  59  59 100 SE7       29.71S VSB 1/4
MERRILL        LGT RAIN  59  59 100 SE3       29.73F
$$

WIZ029-030-035-036-043>047-251500-
CENTRAL WISCONSIN

CITY           SKY/WX    TMP DP  RH WIND       PRES   REMARKS
WAUSAU         LGT RAIN  60  59  96 SE6       29.72S FOG
MOSINEE        LGT RAIN  57  57 100 E5        29.74  VSB 1
MARSHFIELD     LGT RAIN  63  61  93 S6        29.71F FOG
STEVENS POINT  LGT RAIN  59  59  99 CALM      29.73F
WAUPACA        LGT RAIN  65  64  97 E5        29.73F
WAUTOMA        LGT RAIN  66  66 100 SE10      29.71F VSB 1
WISC RAPIDS    LGT RAIN  63  61  93 S5        29.73S
CAMP DOUGLAS   DRIZZLE   63  63 100 S3        29.71S FOG
$$

WIZ011>013-019>022-031-037>040-048>050-251500-
NORTHEAST WISCONSIN

CITY           SKY/WX    TMP DP  RH WIND       PRES   REMARKS
ANTIGO         LGT RAIN  56  56 100 SE9       29.75F
SHAWANO        RAIN      60  58  95 E6        29.76F
OCONTO         CLOUDY    55  55 100 E3        29.77F
STURGEON BAY   CLOUDY    55  52  88 SE8       29.80F VSB 1/2
GREEN BAY      CLOUDY    63  61  93 E6        29.76F FOG
MANITOWOC      CLOUDY    52  52 100 S8        29.80F FOG
APPLETON       LGT RAIN  64  64 100 SE8       29.75F
CLINTONVILLE   LGT RAIN  61  59  94 E3        29.74F
OSHKOSH        CLOUDY    67  63  87 S10       29.74F
$$

WIZ032>034-041-042-053>061-251500-
SOUTHWEST WISCONSIN

CITY           SKY/WX    TMP DP  RH WIND       PRES   REMARKS
LA CROSSE      CLOUDY    66  63  90 S6        29.70R
SPARTA         LGT RAIN  64  63  94 S3        29.72R
VIROQUA        CLOUDY    63  63 100 SW10      29.74R
BOSCOBEL       CLOUDY    67  64  90 S6        29.74R
PRAIRIE DU CHI CLOUDY    65  62  90 S3        29.75R
PLATTEVILLE    CLOUDY    65  64  97 SW13G18   29.78R
$$

WIZ056-057-062-063-064-067-068-251500-
SOUTH CENTRAL WISCONSIN

CITY           SKY/WX    TMP DP  RH WIND       PRES   REMARKS
REEDSBURG      CLOUDY    64  64  99 SW6       29.72R
BARABOO/DELLS  HVY RAIN  65  63  94 W8        29.72R
LONE ROCK      LGT RAIN  65  63  93 W7        29.75R
MINERAL POINT  CLOUDY    64  63  94 SW14      29.77R
MADISON        CLOUDY    67  62  84 SW8G24    29.74R
MIDDLETON      CLOUDY    67  66  95 W22       29.74R
WATERTOWN      CLOUDY    67  67 100 S13G22    29.75F
MONROE         CLOUDY    64  63  94 SW14G22   29.78R
JANESVILLE     LGT RAIN  66  64  94 S14       29.78R FOG
$$

WIZ051-052-058>065-066-070>072-251500-
SOUTHEAST WISCONSIN

CITY           SKY/WX    TMP DP  RH WIND       PRES   REMARKS
MILWAUKEE      CLOUDY    64  61  90 S7        29.79F
WAUKESHA       CLOUDY    63  63 100 S9        29.80F FOG
MILWAUKEE/TIMM CLOUDY    64  61  88 S8        29.79F
RACINE         CLOUDY    67  62  84 S12       29.82F
BURLINGTON     CLOUDY    65  64  96 S17       29.79F FOG
KENOSHA        CLOUDY    70  64  81 S17G31    29.81F
FOND DU LAC    LGT RAIN  67  63  87 S12       29.74F
SHEBOYGAN      CLOUDY    60  58  92 S12       29.78F FOG
WEST BEND      CLOUDY    63  61  94 S7        29.78F FOG
JUNEAU         CLOUDY    66  64  92 SE14G21   29.75F
$$

LSZ147-162-251500-
LAKE SUPERIOR

STATION/POSITION TIME  TEMP    WIND        PRES    WAVE
                       AIR SEA DIR/SP/G            HT/PER
                 (UTC) (F)     (DEG/KT/KT) (MB)    (FT/S)
W MID LAKE BUOY  1250   41 37   40/ 14/ 16   N/A     1/ 3
DEVILS ISLAND    1300   45      40/ 25/ 26 1077.0F
PORT WING        1200   46      30/ 19/ 21 1071.0F
SAXON HARBOR     1200   49      40/ 12/ 14 1068.0F
$$

LMZ867-665-643>646-251500-
LAKE MICHIGAN

STATION/POSITION TIME  TEMP    WIND        PRES    WAVE
                       AIR SEA DIR/SP/G            HT/PER
                 (UTC) (F)     (DEG/KT/KT) (MB)    (FT/S)
CHAMBERS ISLAND  1200   54     120/  4/  7   N/A
N MID LAKE BUOY  1250   43 36  130/  8/  8   N/A     1/ 3
NORTHPORT PIER   1200   49     140/  6/  9   N/A
SISTER BAY       1103   51     100/  6/ 10   N/A
KEWAUNEE LAKESHO 1300   46     170/  8/ 10 1084.0F
SHEBOYGAN LAKESH 1300   47     170/ 13/ 14   N/A
PORT WASHINGTON  1200   50     150/  1/  2   N/A
ATWATER BUOY     1300   51 47  150/ 14/ 16   N/A
MILWAUKEE LAKESH 1300   51     150/  6/ 11   N/A
S MID LAKE BUOY  1250   49 38  170/ 16/ 19   N/A     1/ 3
$$

TC  - TEMPERATURE IN CELSIUS
VSB - VISIBILITY IN STATUTE MILES
WCI - WIND CHILL INDEX
HX  - HEAT INDEX




USA.gov is the U.S. government's official web portal to all federal, state and local government web resources and services.